Temperature
5 5 5 6 6 6 6 5 5 6 5 5 5 4 4 4 4 4 4 4 4 4 4 5 5 5 5 5 6 6 6 6 6 6 6 6 7 7 7 7 7 7 7 7
5 5 5 6 6 6 6 6 5 5 5 5 5 5 4 4 4 4 4 4 4 4 4 4 4 5 5 5 5 5 5 5 6 6 6 6 6 6 6 6 6 6 6 6
4 4 6 6 6 6 6 6 6 6 6 4 4 4 4 4 4 4 4 4 4 4 4 4 4 4 4 4 4 5 5 5 5 5 5 5 5 5 5 5 5 5 5 5
3 4 6 6 6 6 6 6 5 6 5 4 4 5 5 5 5 5 5 4 4 4 4 4 4 4 4 4 4 4 4 4 4 5 5 5 5 4 4 4 4 4 4 4
3 4 4 6 6 5 6 6 5 5 4 4 4 4 5 6 5 5 5 5 4 4 4 4 4 4 4 4 4 4 4 4 4 4 4 4 4 4 3 3 3 3 3 3
3 5 6 7 6 6 6 6 6 5 4 4 4 4 4 6 6 5 5 5 4 4 4 4 4 4 4 4 3 3 3 3 3 3 3 3 3 3 2 3 3 2 2 2
3 4 4 5 5 6 6 7 7 6 5 4 4 5 6 6 6 5 5 5 4 4 4 4 3 3 3 3 3 2 2 2 2 2 2 2 2 2 2 2 2 2 2 2
2 3 4 5 5 5 6 7 7 7 7 6 6 6 6 6 6 5 5 5 4 4 4 3 3 3 2 2 2 2 2 2 2 2 2 1 1 1 1 1 1 1 1 1
2 4 5 5 6 7 7 7 7 7 7 7 6 6 6 6 6 5 5 5 4 4 3 3 3 2 2 2 2 2 2 2 1 1 1 1 1 1 1 0 0 -0 -0 -0
1 2 3 6 7 7 7 7 8 7 7 7 7 7 6 6 5 5 5 4 4 3 3 3 2 2 2 2 2 1 1 1 1 1 1 0 0 -0 -0 -1 -1 -1 -2 -2
1 2 3 6 7 8 8 7 7 7 7 7 7 6 6 6 5 5 4 4 4 3 3 3 2 2 2 1 1 1 1 0 0 0 -0 -0 -0 -1 -1 -1 -2 -2 -3 -3
3 4 3 6 8 7 7 7 7 7 7 6 6 6 6 5 5 5 4 4 3 3 3 2 2 2 1 1 1 0 0 -0 -0 -1 -1 -1 -1 -1 -1 -2 -2 -3 -3 -3
5 6 6 6 7 7 7 7 7 6 6 6 6 6 5 5 5 4 4 3 3 3 2 2 2 1 1 1 0 0 -0 -1 -1 -1 -1 -2 -2 -2 -2 -2 -2 -3 -3 -3
5 5 5 6 6 6 6 6 6 6 6 6 6 5 5 5 4 4 4 3 3 2 2 2 1 1 1 0 -0 -0 -1 -1 -1 -2 -2 -2 -3 -3 -3 -3 -3 -3 -3 -4
5 5 5 5 5 5 6 6 6 6 6 5 5 5 5 4 4 4 3 3 3 2 2 2 1 1 1 0 -0 -1 -1 -1 -2 -2 -2 -3 -3 -4 -4 -4 -4 -4 -4 -4
4 4 4 4 5 5 5 5 5 5 5 5 5 5 4 4 4 3 3 3 2 2 2 1 1 1 0 -0 -1 -1 -1 -2 -2 -3 -3 -3 -4 -4 -4 -5 -5 -5 -5 -5
3 3 4 4 4 4 5 5 5 5 5 5 5 4 4 4 3 3 3 2 2 2 1 1 1 0 -0 -1 -1 -1 -2 -2 -3 -3 -3 -4 -4 -5 -5 -5 -6 -6 -6 -6
4 4 4 4 4 4 4 4 4 4 4 4 4 4 3 3 3 3 2 2 2 1 1 1 0 -0 -1 -1 -1 -2 -2 -3 -3 -4 -4 -4 -5 -5 -5 -6 -6 -6 -6 -6
4 4 4 4 4 4 4 4 4 4 4 4 3 3 3 3 3 2 2 1 1 1 1 0 -0 -1 -1 -1 -2 -2 -3 -3 -4 -4 -5 -5 -5 -6 -6 -6 -6 -7 -7 -7
4 4 4 4 4 4 4 4 4 3 3 3 3 3 3 2 2 2 1 1 1 1 0 -0 -1 -1 -1 -2 -2 -3 -3 -4 -4 -5 -5 -5 -6 -6 -6 -7 -7 -7 -7 -7
5 4 4 4 4 4 4 4 3 3 3 3 2 2 2 2 2 1 1 1 1 0 -0 -1 -1 -1 -2 -2 -3 -3 -4 -4 -5 -5 -5 -6 -6 -6 -6 -7 -7 -7 -7 -7
4 4 4 4 3 3 3 3 3 3 3 2 2 2 1 1 1 1 0 0 0 -0 -1 -1 -1 -2 -2 -3 -3 -4 -4 -5 -5 -5 -6 -6 -6 -7 -7 -7 -7 -8 -8 -8
4 3 3 3 3 3 3 3 2 2 2 2 2 1 1 1 1 0 0 -0 -1 -1 -1 -2 -2 -2 -3 -3 -4 -4 -5 -5 -5 -6 -6 -7 -7 -7 -7 -8 -8 -8 -8 -8
3 3 3 2 2 2 2 2 2 2 1 1 1 1 1 0 0 -0 -0 -1 -1 -1 -2 -2 -2 -3 -3 -4 -4 -5 -5 -5 -6 -6 -7 -7 -7 -7 -8 -8 -8 -8 -8 -8
3 3 2 2 2 2 2 2 1 1 1 1 1 0 0 -0 -0 -1 -1 -1 -2 -2 -2 -3 -3 -3 -4 -4 -5 -5 -5 -6 -6 -7 -7 -7 -8 -8 -8 -8 -8 -8 -9 -9
2 2 2 2 2 1 1 1 1 1 0 0 0 -0 -0 -1 -1 -1 -2 -2 -2 -3 -3 -3 -3 -4 -4 -5 -5 -5 -6 -6 -7 -7 -7 -8 -8 -8 -8 -8 -9 -9 -9 -9
2 2 1 1 1 1 1 1 0 0 0 -0 -0 -0 -1 -1 -1 -2 -2 -2 -3 -3 -3 -4 -4 -4 -5 -5 -5 -6 -6 -7 -7 -7 -8 -8 -8 -8 -8 -9 -9 -9 -9 -9
Wind_Speed
4 4 3 3 4 3 2 3 4 3 3 5 3 2 2 1 2 4 5 6 7 8 8 8 8 8 7 8 8 8 8 8 7 6 6 6 6 6 6 6 5 4 3 4
3 3 3 4 4 2 1 2 2 2 4 3 2 1 1 1 1 1 2 4 5 6 7 8 7 7 7 8 8 7 8 7 7 7 7 7 7 7 7 6 6 6 5 4
4 7 5 5 4 3 2 3 4 5 5 2 2 4 4 3 2 1 1 2 3 4 4 5 6 5 6 6 6 7 8 8 8 8 8 7 7 7 7 6 6 6 6 5
3 6 3 6 2 4 3 4 5 5 4 5 5 3 3 4 4 3 2 0 1 2 3 4 4 5 5 6 7 7 8 8 8 7 7 7 7 7 6 5 5 6 6 6
1 3 7 7 3 3 3 5 5 6 5 4 2 1 3 4 5 4 3 2 1 0 1 2 4 4 5 6 7 7 8 7 7 7 7 7 7 7 6 6 6 6 6 6
2 1 5 5 1 2 2 6 4 6 6 5 5 1 4 4 5 3 2 2 1 1 2 3 3 4 5 6 6 6 6 5 6 6 6 6 6 5 5 4 5 5 6 6
3 4 8 7 2 3 2 6 3 5 6 7 7 6 2 4 4 4 3 2 2 2 2 2 2 3 4 4 4 4 4 5 5 5 5 5 4 4 5 5 5 5 6 6
4 4 8 4 5 6 7 3 2 4 5 7 6 3 3 4 4 4 3 2 2 2 1 1 2 2 2 3 3 3 3 4 5 5 5 5 5 5 5 5 6 6 6 7
8 9 5 5 7 5 3 4 4 4 5 6 5 5 4 4 5 4 4 3 2 3 1 1 1 1 0 2 2 3 3 4 4 5 5 5 5 5 5 5 5 6 6 7
6 9 8 9 8 7 6 6 5 5 5 6 6 6 6 5 5 5 4 4 3 3 2 1 1 0 1 2 2 2 3 4 5 5 5 5 5 4 4 5 5 6 6 7
7 9 8 7 7 8 6 6 5 4 5 6 7 6 7 6 6 6 5 4 4 4 4 3 2 1 1 1 1 2 2 3 3 4 4 5 5 4 5 4 5 6 6 6
9 7 6 6 4 4 5 6 7 6 5 5 7 7 6 6 6 6 5 5 4 5 4 3 3 2 2 1 0 0 2 2 3 3 4 4 5 6 7 7 11 11 10 10
7 4 6 7 6 5 6 7 6 7 7 6 6 6 6 6 5 5 5 6 6 6 5 4 3 3 2 1 1 1 1 2 2 3 4 4 5 6 7 8 10 10 12 13
8 5 7 7 7 6 6 5 5 5 5 5 5 5 5 5 5 6 7 7 6 5 5 4 4 4 3 2 1 1 2 2 3 3 3 4 4 5 5 7 8 8 10 13
9 9 9 7 6 5 4 3 3 4 4 4 4 5 6 6 7 7 6 5 5 5 5 5 5 4 2 2 2 2 1 2 2 3 3 3 4 4 5 6 7 8 8 9
6 6 7 8 9 7 5 5 6 7 6 6 6 6 7 7 6 5 5 6 6 6 6 5 5 4 3 3 2 1 2 3 3 2 3 3 4 4 5 6 6 7 8 8
6 7 6 7 8 8 7 8 8 8 6 7 8 6 5 5 5 5 5 6 6 6 5 5 5 3 3 3 2 2 2 2 4 3 3 3 4 5 5 5 6 7 7 9
10 10 9 8 8 9 8 8 7 7 7 7 6 5 6 7 8 8 6 5 4 3 3 4 3 3 3 3 2 2 1 2 2 3 3 4 4 4 5 5 6 7 7 8
8 9 9 9 9 8 8 8 7 7 6 6 6 7 8 8 7 6 6 6 6 5 4 4 4 3 3 3 2 2 1 2 2 3 3 5 5 4 5 5 6 6 7 7
6 7 7 7 6 7 7 7 6 5 6 6 6 6 6 6 6 6 6 6 6 5 4 4 4 3 3 3 2 2 2 2 2 3 3 3 4 4 5 5 6 6 7 7
6 5 5 5 5 6 6 6 6 6 6 6 7 8 7 6 6 6 6 5 5 4 5 5 4 3 3 3 3 2 2 2 2 3 3 3 4 4 5 5 6 6 7 7
5 5 5 5 5 5 4 4 5 6 6 6 6 6 6 6 6 5 5 5 5 6 5 4 4 4 4 3 2 2 2 2 3 3 3 3 4 4 5 5 6 6 6 6
5 5 5 5 5 4 3 4 5 6 6 7 7 8 7 6 6 6 5 4 4 7 5 4 5 5 4 3 2 2 3 3 3 3 3 3 4 4 5 5 5 6 6 6
5 5 5 4 2 3 4 5 4 4 5 5 6 6 6 5 4 4 3 6 7 7 4 5 6 5 4 3 2 2 3 3 3 3 3 3 3 3 4 5 5 5 6 7
5 5 4 4 5 5 5 4 3 3 4 3 4 4 4 4 4 4 4 5 7 6 4 5 6 5 3 2 3 3 3 3 3 3 2 3 3 4 4 5 5 5 5 6
5 5 5 6 5 4 4 4 4 4 4 4 3 3 3 3 4 4 4 5 6 6 4 3 3 4 3 3 3 3 3 3 3 3 3 3 4 4 5 5 5 5 5 6
5 5 4 4 4 5 5 5 5 6 6 6 4 4 4 4 4 4 5 4 4 4 3 3 3 3 3 3 3 3 2 2 3 3 3 3 4 4 5 5 5 5 5 6
Wind_Direction
256 273 270 270 291 293 201 198 197 232 225 256 246 243 261 345 13 25 24 23 21 20 17 19 22 25 32 32 31 37 42 41 37 34 32 32 32 30 31 31 24 20 20 10
317 325 310 281 278 269 231 191 206 227 260 252 203 151 245 272 10 19 8 10 16 21 19 17 16 18 27 30 31 40 44 38 32 33 33 29 25 23 24 22 18 19 17 8
308 317 341 300 262 210 221 218 184 210 235 193 191 212 222 225 227 241 297 6 14 10 10 9 10 18 27 28 32 40 40 34 29 30 30 24 22 24 20 15 15 12 5 1
324 1 297 256 262 199 218 247 223 228 224 201 207 212 222 211 206 221 235 289 347 356 9 10 12 21 30 34 36 36 33 28 22 23 24 21 23 20 15 12 12 6 360 357
37 319 289 294 253 183 193 277 223 210 217 189 147 62 288 223 199 206 204 198 206 308 21 27 26 24 39 38 35 33 25 18 13 15 16 16 15 7 3 4 3 357 350 350
135 269 261 265 243 178 102 291 242 189 192 174 140 201 259 201 178 186 175 156 139 92 62 47 23 32 47 37 31 21 9 4 5 10 12 10 2 353 350 353 348 345 344 342
198 242 267 257 239 126 164 258 268 194 188 175 190 211 219 158 168 174 167 158 134 106 81 45 28 45 48 33 14 351 356 5 8 7 3 357 354 349 345 346 347 347 340 338
180 216 258 226 152 184 222 265 236 206 197 192 206 198 179 177 179 174 168 158 144 128 93 41 46 61 47 2 334 346 1 8 5 0 358 358 355 349 349 350 350 346 342 338
201 221 246 215 215 237 215 238 240 215 213 195 200 207 197 194 190 188 184 179 165 155 143 41 33 89 80 306 328 353 4 1 355 355 355 353 351 346 347 351 350 342 340 336
257 260 254 250 249 251 230 233 245 228 208 192 205 209 202 199 196 192 191 186 173 164 179 218 248 260 257 306 344 5 359 349 348 350 347 346 343 339 340 340 336 332 331 327
257 273 289 272 238 236 232 227 230 227 210 204 203 210 204 202 202 198 194 186 177 186 203 221 227 242 276 308 14 4 344 337 337 336 334 332 329 325 327 317 322 323 318 316
233 233 219 258 266 232 224 229 223 215 222 219 207 213 207 207 202 195 193 185 187 199 206 213 212 227 243 246 207 334 331 329 329 329 328 330 331 329 328 326 327 326 323 319
240 253 236 262 274 246 234 236 227 217 216 220 216 207 203 205 199 191 191 192 199 204 205 203 207 226 234 226 220 249 294 310 317 324 329 331 332 331 327 328 329 330 331 330
241 250 265 253 252 255 246 245 231 227 223 213 206 196 192 196 193 195 203 205 198 192 195 199 207 226 226 212 217 244 271 301 314 309 315 318 319 318 318 321 325 325 328 330
243 227 239 261 272 272 256 234 223 232 224 217 198 192 190 195 204 209 206 191 178 185 197 199 209 226 211 197 211 236 266 286 298 301 305 307 310 313 314 314 315 316 321 328
250 251 247 250 253 254 245 229 229 234 224 218 211 209 204 202 203 199 191 179 180 200 204 203 215 217 195 189 203 229 258 293 309 306 304 308 312 313 315 316 316 319 322 325
234 250 241 245 246 248 239 231 229 232 226 221 220 211 195 185 189 198 200 195 197 203 201 203 210 198 184 184 196 227 251 283 306 308 299 302 305 307 309 311 314 316 316 319
226 237 238 238 243 246 246 238 231 230 227 224 210 192 190 193 202 208 201 183 179 200 213 208 197 181 179 189 197 216 238 261 285 289 292 297 302 302 305 308 311 313 315 320
234 238 242 242 239 236 239 237 233 228 224 207 196 201 205 206 205 197 177 173 187 212 219 197 184 172 186 205 197 204 220 253 278 286 290 302 309 306 307 307 308 311 315 321
239 238 241 245 240 230 233 234 227 223 215 202 198 200 205 206 194 182 178 194 208 206 187 178 175 184 198 209 200 195 220 248 267 280 288 292 297 303 307 309 311 313 315 317
245 245 247 250 252 244 233 223 212 216 211 197 198 206 208 203 186 177 180 211 218 189 178 176 175 188 199 205 199 197 222 246 260 268 281 289 297 301 305 309 311 312 315 317
243 244 247 246 248 256 248 226 214 211 204 201 202 199 193 192 188 189 202 207 192 178 173 177 184 200 207 195 185 204 226 243 254 261 270 280 288 295 299 304 306 307 309 311
244 244 246 243 240 248 255 235 217 208 206 203 198 196 197 197 191 192 214 201 180 184 177 186 200 207 200 174 187 209 227 240 251 260 266 270 274 280 289 295 298 302 303 305
242 241 240 239 223 229 244 242 224 214 211 210 203 196 187 186 202 208 190 175 181 182 182 195 201 203 189 173 195 214 228 241 251 259 264 268 270 276 283 289 294 297 297 299
235 237 233 222 227 234 234 228 217 211 200 203 202 195 191 189 192 187 170 175 184 180 180 194 201 199 181 186 206 221 231 241 251 257 256 269 273 276 278 281 285 292 295 295
225 229 231 229 228 227 217 206 213 211 197 199 206 194 181 167 161 161 164 173 179 181 176 180 187 193 192 203 215 224 229 252 273 273 266 270 274 277 278 281 285 287 290 291
227 230 234 243 237 218 209 207 211 214 205 198 202 194 180 169 163 165 167 169 173 177 180 183 184 189 198 209 218 222 228 242 254 261 264 265 270 273 278 281 284 285 287 288
Height
1480 1478 1476 1474 1471 1470 1470 1470 1472 1469 1468 1465 1464 1464 1463 1462 1461 1460 1459 1457 1455 1453 1450 1448 1447 1445 1444 1443 1443 1442 1441 1441 1441 1441 1441 1441 1441 1441 1440 1440 1440 1439 1439 1439
1479 1476 1475 1472 1469 1468 1467 1468 1468 1468 1467 1463 1463 1463 1463 1463 1462 1461 1460 1459 1457 1456 1453 1451 1450 1449 1447 1446 1445 1444 1443 1442 1442 1442 1441 1441 1440 1440 1440 1439 1438 1438 1437 1436
1484 1480 1473 1472 1466 1466 1465 1464 1465 1465 1464 1462 1463 1462 1462 1462 1462 1462 1461 1460 1459 1458 1456 1454 1453 1451 1450 1449 1447 1446 1444 1444 1443 1442 1442 1441 1440 1440 1439 1438 1437 1436 1435 1434
1487 1482 1477 1468 1462 1462 1463 1462 1461 1460 1460 1460 1460 1461 1461 1461 1461 1461 1461 1461 1460 1459 1458 1457 1455 1454 1452 1451 1449 1448 1446 1445 1444 1443 1442 1441 1440 1439 1438 1437 1435 1434 1433 1431
1490 1488 1479 1466 1462 1462 1463 1460 1457 1458 1458 1459 1460 1461 1460 1460 1460 1461 1461 1461 1461 1460 1459 1458 1457 1455 1454 1452 1451 1450 1448 1447 1446 1444 1443 1441 1440 1439 1437 1435 1434 1432 1431 1429
1489 1484 1475 1463 1460 1459 1462 1460 1453 1454 1456 1458 1459 1463 1460 1458 1459 1460 1460 1461 1460 1460 1459 1458 1457 1456 1455 1453 1452 1451 1450 1448 1446 1445 1443 1441 1440 1438 1436 1434 1433 1431 1429 1428
1488 1486 1475 1462 1459 1460 1466 1459 1452 1451 1453 1455 1456 1457 1457 1457 1458 1459 1459 1460 1460 1459 1459 1458 1457 1456 1455 1454 1452 1451 1450 1448 1446 1445 1443 1441 1439 1437 1435 1433 1431 1429 1427 1425
1487 1485 1473 1457 1458 1460 1457 1451 1450 1450 1451 1452 1453 1454 1455 1456 1456 1457 1458 1458 1458 1458 1458 1458 1457 1456 1455 1454 1453 1451 1450 1448 1446 1444 1442 1440 1438 1436 1434 1431 1429 1426 1424 1422
1475 1467 1456 1454 1452 1451 1451 1450 1449 1449 1449 1450 1451 1452 1453 1454 1454 1455 1456 1456 1456 1457 1457 1456 1456 1455 1454 1453 1452 1450 1448 1447 1445 1443 1441 1438 1436 1434 1431 1429 1426 1424 1422 1419
1467 1456 1451 1450 1449 1448 1448 1448 1448 1448 1448 1448 1449 1449 1450 1451 1452 1453 1454 1454 1455 1455 1455 1455 1454 1454 1453 1452 1450 1449 1447 1445 1443 1441 1439 1437 1434 1432 1430 1427 1424 1422 1420 1417
1462 1452 1447 1444 1443 1444 1444 1445 1445 1446 1446 1446 1446 1447 1447 1448 1449 1450 1451 1452 1452 1452 1453 1453 1452 1452 1451 1450 1449 1447 1445 1443 1441 1439 1437 1435 1433 1430 1428 1425 1423 1421 1418 1415
1451 1445 1445 1441 1441 1441 1441 1441 1441 1442 1442 1442 1443 1443 1444 1445 1446 1447 1448 1449 1449 1450 1450 1450 1450 1449 1449 1448 1446 1445 1443 1441 1439 1437 1435 1432 1430 1428 1425 1424 1421 1418 1416 1413
1442 1441 1440 1438 1438 1438 1437 1437 1437 1438 1438 1438 1439 1440 1441 1441 1442 1443 1444 1445 1446 1446 1447 1447 1447 1446 1446 1445 1444 1442 1440 1438 1436 1434 1432 1429 1427 1424 1421 1420 1418 1415 1412 1409
1437 1437 1435 1433 1433 1433 1433 1433 1433 1433 1434 1434 1435 1436 1436 1437 1438 1439 1440 1441 1442 1442 1443 1443 1443 1443 1442 1441 1440 1439 1437 1435 1433 1431 1429 1426 1424 1421 1419 1416 1413 1410 1408 1405
1431 1431 1430 1429 1429 1429 1428 1428 1428 1428 1429 1430 1430 1431 1432 1433 1433 1434 1436 1437 1437 1438 1438 1439 1439 1439 1438 1437 1436 1435 1434 1432 1430 1428 1426 1424 1421 1419 1416 1413 1410 1407 1404 1401
1425 1425 1424 1424 1423 1423 1423 1423 1423 1423 1424 1425 1426 1426 1427 1428 1429 1430 1431 1432 1433 1433 1434 1434 1434 1434 1434 1433 1432 1431 1430 1428 1426 1425 1423 1420 1418 1416 1413 1411 1408 1404 1401 1398
1420 1418 1418 1418 1418 1418 1418 1418 1419 1419 1420 1420 1421 1422 1423 1424 1424 1425 1427 1428 1428 1429 1430 1430 1430 1430 1429 1429 1428 1427 1426 1424 1423 1421 1419 1417 1415 1413 1410 1408 1405 1402 1399 1396
1413 1413 1413 1413 1413 1412 1412 1413 1414 1415 1415 1416 1417 1417 1418 1418 1419 1421 1422 1423 1424 1424 1425 1425 1426 1425 1425 1424 1424 1423 1421 1420 1419 1417 1415 1413 1411 1409 1407 1404 1401 1398 1395 1393
1407 1408 1408 1408 1408 1408 1407 1408 1409 1409 1410 1411 1411 1412 1413 1414 1415 1416 1417 1418 1418 1419 1420 1421 1421 1421 1421 1420 1419 1418 1417 1416 1414 1413 1411 1409 1407 1405 1403 1400 1398 1395 1392 1389
1403 1403 1403 1403 1403 1403 1402 1403 1403 1404 1405 1406 1406 1407 1407 1408 1410 1411 1412 1413 1414 1415 1416 1416 1416 1416 1416 1416 1415 1414 1413 1411 1410 1409 1407 1405 1403 1401 1399 1397 1394 1392 1389 1386
1399 1399 1399 1399 1398 1398 1398 1398 1398 1399 1399 1400 1401 1402 1403 1404 1405 1406 1407 1408 1409 1410 1411 1411 1411 1411 1411 1411 1410 1409 1408 1407 1406 1404 1403 1401 1399 1397 1395 1393 1391 1388 1385 1383
1395 1395 1394 1394 1394 1393 1393 1394 1394 1394 1394 1395 1396 1397 1398 1399 1400 1401 1402 1403 1404 1405 1405 1406 1406 1406 1406 1406 1405 1404 1403 1402 1401 1400 1398 1397 1395 1393 1391 1389 1387 1385 1382 1380
1392 1391 1391 1390 1390 1389 1389 1389 1389 1389 1389 1390 1390 1392 1393 1394 1395 1396 1397 1398 1399 1400 1400 1401 1401 1401 1401 1401 1400 1399 1398 1397 1396 1395 1394 1392 1391 1389 1387 1385 1383 1381 1379 1377
1388 1388 1387 1386 1386 1385 1384 1384 1384 1384 1385 1385 1386 1387 1388 1389 1390 1392 1393 1394 1394 1395 1395 1396 1396 1396 1396 1396 1395 1394 1394 1393 1392 1390 1389 1388 1386 1385 1383 1381 1379 1378 1376 1373
1384 1384 1383 1382 1381 1381 1380 1380 1380 1380 1380 1380 1381 1382 1383 1385 1386 1387 1388 1389 1390 1390 1391 1391 1391 1391 1391 1391 1390 1390 1389 1388 1387 1386 1385 1384 1382 1381 1379 1377 1376 1374 1372 1370
1379 1379 1379 1378 1377 1377 1376 1376 1375 1375 1375 1375 1376 1377 1379 1380 1381 1382 1383 1384 1385 1385 1386 1386 1386 1386 1386 1386 1386 1385 1385 1384 1383 1382 1381 1379 1378 1377 1375 1374 1372 1370 1368 1366
1374 1374 1373 1372 1372 1372 1372 1371 1371 1371 1371 1371 1372 1373 1374 1375 1376 1377 1378 1379 1380 1380 1381 1381 1382 1382 1382 1382 1381 1381 1380 1380 1379 1378 1376 1375 1374 1373 1371 1370 1368 1366 1365 1363